www.pogodaiklimat.ru

Погода и климат >> Архив погоды >> Россия >> Чукотка >> Эньмувеем


ПОГОДА в Эньмувееме

  • Прогноз погоды в Эньмувееме
  • Монитор погоды в Эньмувееме

АРХИВ ПОГОДЫ в Эньмувееме

Время (UTC), дата Ветер
(напр.,м/с)
 
Видим.   Явления Облачность Т
(С)
Тd
(С)
f
(%)
Тe
(С)
Тes
(С)
Комфортность P
(гПа)
Po
(гПа)
Тmin
(С)
Tmax
(С)
R
(мм)
R24
(мм)
S
(см)
00 12.04 З 1
{4}
50 км 6/0
[Ac trans Ci fib]
-12.8 -18.0 65 -15 -9 1010.8 1000.7
15 12.04 штиль 0
{1}
50 км 6/0
[Ac trans Ci fib]
-20.9 -24.2 75 -21 -21 1010.9 1000.4
00 14.04 ЮВ 2
{4}
50 км 4/0
[Ac trans Ci fib]
-9.9 -15.8 62 -14 -8 1013.8 1003.6
03 14.04 В 1
{4}
50 км 1/0
[Ci fib]
-8.3 -14.1 63 -10 -4 1014.2 1004.2
06 14.04 СВ 1
{3}
50 км 1/0
[Ci fib]
-6.3 -13.9 55 -8 -7 1014.7 1004.7 -6.0
09 14.04 С 1
{2}
50 км ясно -16.4 -20.6 70 -19 -19 1017.0 1006.6
12 14.04 штиль 0
{1}
50 км ясно -22.4 -25.6 75 -22 -22 1017.9 1007.3
18 14.04 штиль 0
{1}
50 км ясно -26.9 -30.0 75 -27 -26 1019.6 1008.8 -27.1 41
00 15.04 СВ 1
{4}
50 км ясно -10.0 -15.3 65 -12 -4 1020.1 1009.9
06 15.04 штиль 0
{3}
50 км ясно -9.1 -15.3 61 -9 -8 1019.5 1009.3 -7.6
12 15.04 штиль 0
{1}
50 км ясно -24.0 -28.0 69 -24 -24 1021.1 1010.3
18 15.04 штиль 0
{2}
50 км ясно -25.6 -28.8 74 -26 -25 1020.6 1009.8 -27.4 41
00 16.04 СВ 1
{3}
50 км ясно -13.2 -17.5 70 -16 -7 1019.5 1009.3
03 16.04 СВ 1
{3}
50 км 3/0
[Ci fib]
-10.9 -16.2 65 -13 -7 1018.4 1008.2
06 16.04 СВ 1
{3}
50 км 9/0
[Ci fib]
-11.5 -15.9 70 -14 -13 1017.3 1007.1 -9.9
09 16.04 ЮВ 1
{3}
50 км 9/0
[Ac trans Ci fib]
-18.2 -21.5 75 -21 -21 1017.6 1007.2
12 16.04 штиль 0
{2}
50 км 1/0
[Ac trans Cs]
-22.1 -25.4 74 -22 -22 1017.6 1007.0
15 16.04 штиль 0
{1}
50 км 10/0
[Ac trans Cs]
-21.5 -24.7 75 -22 -22 1016.7 1006.1
18 16.04 СЗ 1
{2}
50 км 9/0
[Ac trans Ci fib]
-18.4 -21.0 80 -21 -21 1016.0 1005.6 -22.7 41
21 16.04 СЗ 1
{3}
50 км 8/0
[Ac trans Ci fib]
-14.5 -17.9 75 -17 -14 1015.9 1005.5
00 17.04 СЗ 1
{4}
50 км 9/0
[Ac trans Ci fib]
-11.4 -15.8 70 -14 -9 1016.0 1005.8
03 17.04 штиль 0
{3}
50 км 10/0
[Ac trans Cs]
-8.7 -13.6 68 -9 -4 1016.0 1005.8
06 17.04 штиль 0
{3}
50 км 8/0
[Ac trans Ci fib]
-7.8 -13.9 62 -8 -7 1016.5 1006.5 -7.4
09 17.04 СЗ 1
{2}
50 км 4/0
[Ci fib]
-14.4 -17.9 75 -17 -17 1018.5 1008.1
12 17.04 З 1
{3}
50 км 3/0
[Ci fib]
-9.7 -13.3 75 -12 -12 1020.0 1009.8
15 17.04 Ю 1
{3}
50 км 4/0
[Ci fib]
-11.3 -14.8 75 -14 -14 1021.5 1011.2
18 17.04 штиль 0
{3}
50 км 6/0
[Ci fib]
-10.9 -15.3 70 -11 -10 1022.7 1012.4 -15.2 41
21 17.04 СЗ 1
{3}
50 км 6/0
[Ci fib]
-9.0 -15.1 61 -11 -7 1023.9 1013.6
00 18.04 ЮЗ 2
{4}
50 км 3/0
[Ci fib]
-4.5 -12.1 55 -8 -1 1024.1 1014.0
03 18.04 штиль 0
{3}
50 км 1/0
[Ci fib]
-5.1 -12.3 57 -6 +2 1023.8 1013.7
06 18.04 ЮЗ 1
{3}
50 км ясно -6.8 -13.5 59 -9 -7 1023.5 1013.4 -4.0
09 18.04 штиль 0
{3}
50 км ясно -14.9 -19.1 70 -15 -15 1024.2 1013.7
12 18.04 штиль 0
{1}
50 км ясно -22.8 -25.3 80 -23 -23 1023.6 1012.9
15 18.04 штиль 0
{1}
50 км ясно -25.4 -28.5 75 -25 -25 1023.1 1012.2
18 18.04 штиль 0
{1}
50 км ясно -24.1 -27.3 75 -24 -24 1021.5 1010.7 -26.1 41

 

Местоположение метеостанции Эньмувеем (Чукотка, Россия): широта 66.38 долгота 173.30 высота над уровнем моря 77 м.

В архиве по умолчанию представлена погода в Эньмувееме за последнюю неделю. Архивные данные за месяц целиком и за предыдущие месяцы, начиная с января 2011 года, Вы можете получить, выбрав интересующий диапазон дат из раскрывающегося списка и нажав кнопку "Ввод!".


*Определитесь, кто Вы:
робот инопланетянин человек

Внимание! Время в таблицах - всемирное. Для получения местного времени необходимо прибавить поправку, которая равна 12 ч.

Смотрите также архив погоды в соседних городах и на ближайших метеорологических станциях:

Погода в Танюрере (Чукотка, Россия) (175 км)
Погода в Канчалане (Чукотка, Россия) (205 км)
Погода в Марково (Чукотка, Россия) (231 км)
Погода в Майской (Чукотка, Россия) (244 км)
Погода в Илирнее (Чукотка, Россия) (255 км)
Погода в Анадыре (Чукотка, Россия) (263 км)
Погода в Анадыре АМС (Чукотка, Россия) (268 км)
Погода в Чауне (Чукотка, Россия) (299 км)
Погода в Паляваам-Глубокой (Чукотка, Россия) (307 км)
Погода в Комсомольской (Чукотка, Россия) (307 км)

Пояснения к столбцам:

Ветер - указаны скорость ветра в м/с - средняя за 10 мин, порывы в срок и между сроками (в фигурных скобках) и направление, откуда дует ветер: С - северный, СВ - северо-восточный, В - восточный, ЮВ - юго-восточный, Ю - южный, ЮЗ - юго-западный, З - западный, СЗ - северо-западный.
Видимость - горизонтальная дальность видимости в метрах или километрах. При видимости от 1 до 10 км при отсутствии осадков обычно наблюдается дымка, при ухудшении видимости до 1 км и менее - туман. В сухую погоду видимость может ухудшаться дымом, пылью или мглою.
Явления - указаны атмосферные явления, наблюдавшиеся в срок или в последний час перед сроком; фигурными скобками обозначены явления, наблюдавшиеся между сроками (за 1-3 часа до срока); квадратными скобками обозначены град или гололедные отложения с указанием их диаметра в мм.
Облачность - указаны через наклонную черту общая и нижняя облачность в баллах и высота нижней границы облаков в метрах; квадратными скобками обозначены формы облаков: Ci - перистые, Cs - перисто-слоистые, Cc - перисто-кучевые, Ac - высококучевые, As - высокослоистые, Sc - слоисто-кучевые, Ns - слоисто-дождевые, Cu - кучевые, Cb - кучево-дождевые. Подробнее классификацию облаков см. в Атласе облаков (PDF).
T - Температура воздуха - температура, измеренная на высоте 2 м над землей.
Td - Температура точки росы - температура, при понижении до которой содержащийся в воздухе водяной пар достигнет насыщения.
f - Относительная влажность воздуха - влажноcть воздуха, измеренная на высоте 2 м над землей.
Te - Эффективная температура - температура, которую ощущает одетый по сезону человек в тени. Характеристика душности погоды. При расчете учитывается влияние влажности воздуха и скорости ветра на теплоощущения человека.
Tes - Эффективная температура на солнце - температура, которую ощущает человек, с поправкой на солнечный нагрев. Характеристика знойности погоды. Зависит от высоты солнца над горизонтом, облачности и скорости ветра. Ночью, в пасмурную погоду, а также при ветре 12 м/с и более поправка равна нулю.
P - Атмосферное давление - приведенное к уровню моря атмосферное давление.
Po - Атмосферное давление - измеренное на уровне метеостанции атмосферное давление.
Tmin - Минимальная температура - минимум температуры воздуха на высоте 2 м над землей.
Tmax - Максимальная температура - максимум температуры воздуха на высоте 2 м над землей.
R - Количество осадков - Количество выпавших осадков за период времени, мм. При наведении курсора мыши на число - период времени, за который выпало указанное количество осадков.
R24 - Количество осадков - Количество выпавших осадков за 24 часа, мм.
S - Снежный покров - Высота снежного покрова, см. При наведении курсора мыши на число - состояние снежного покрова и степень покрытия местности в баллах.